Time,TemperatureF,DewpointF,PressureIn,WindDirection,WindDirectionDegrees,WindSpeedMPH,WindSpeedGustMPH,Humidity,HourlyPrecipIn,Conditions,Clouds,dailyrainin,SoftwareType,DateUTC
2013-02-25 00:00:00,26.0,13.6,29.90,West,278,5.0,5.0,59,0.00,,,0.00,Wunderground v.1.15,2013-02-25 07:00:00,
2013-02-25 00:10:00,27.2,13.6,29.90,WNW,282,4.0,4.0,56,0.00,,,0.00,Wunderground v.1.15,2013-02-25 07:10:00,
2013-02-25 00:15:00,26.9,14.5,29.90,WNW,293,3.0,4.0,59,0.00,,,0.00,Wunderground v.1.15,2013-02-25 07:15:00,
2013-02-25 00:20:00,26.4,15.1,29.90,WNW,294,1.0,1.0,62,0.00,,,0.00,Wunderground v.1.15,2013-02-25 07:20:00,
2013-02-25 00:30:00,26.0,13.6,29.90,NW,306,2.0,2.0,59,0.00,,,0.00,Wunderground v.1.15,2013-02-25 07:30:00,
2013-02-25 00:35:00,25.9,13.5,29.90,WNW,288,2.0,3.0,59,0.00,,,0.00,Wunderground v.1.15,2013-02-25 07:35:00,
2013-02-25 00:45:00,26.3,14.3,29.90,WNW,282,5.0,7.0,60,0.00,,,0.00,Wunderground v.1.15,2013-02-25 07:45:00,
2013-02-25 00:50:00,27.1,14.7,29.90,WNW,298,7.0,7.0,59,0.00,,,0.00,Wunderground v.1.15,2013-02-25 07:50:00,
2013-02-25 00:55:00,27.0,14.2,29.90,WNW,291,7.0,7.0,58,0.00,,,0.00,Wunderground v.1.15,2013-02-25 07:55:00,
2013-02-25 01:00:00,27.0,13.4,29.90,WNW,286,7.0,8.0,56,0.00,,,0.00,Wunderground v.1.15,2013-02-25 08:00:00,
2013-02-25 01:10:00,27.8,12.4,29.90,West,275,8.0,8.0,52,0.00,,,0.00,Wunderground v.1.15,2013-02-25 08:10:00,
2013-02-25 01:15:00,27.9,12.1,29.90,West,273,8.0,8.0,51,0.00,,,0.00,Wunderground v.1.15,2013-02-25 08:15:00,
2013-02-25 01:20:00,28.3,12.0,29.90,West,270,7.0,9.0,50,0.00,,,0.00,Wunderground v.1.15,2013-02-25 08:20:00,
2013-02-25 01:25:00,29.8,12.5,29.90,West,281,8.0,10.0,48,0.00,,,0.00,Wunderground v.1.15,2013-02-25 08:25:00,
2013-02-25 01:35:00,31.4,12.0,29.90,West,278,9.0,10.0,44,0.00,,,0.00,Wunderground v.1.15,2013-02-25 08:35:00,
2013-02-25 01:40:00,31.4,12.0,29.90,WNW,290,8.0,8.0,44,0.00,,,0.00,Wunderground v.1.15,2013-02-25 08:40:00,
2013-02-25 01:45:00,30.5,13.1,29.90,WNW,296,7.0,8.0,48,0.00,,,0.00,Wunderground v.1.15,2013-02-25 08:45:00,
2013-02-25 01:55:00,30.2,11.9,29.90,West,267,6.0,8.0,46,0.00,,,0.00,Wunderground v.1.15,2013-02-25 08:55:00,
2013-02-25 02:00:00,30.0,13.6,29.90,WNW,300,6.0,8.0,50,0.00,,,0.00,Wunderground v.1.15,2013-02-25 09:00:00,
2013-02-25 02:10:00,30.0,12.2,29.90,West,277,6.0,9.0,47,0.00,,,0.00,Wunderground v.1.15,2013-02-25 09:10:00,
2013-02-25 02:20:00,29.8,12.0,29.90,WNW,290,7.0,7.0,47,0.00,,,0.00,Wunderground v.1.15,2013-02-25 09:20:00,
2013-02-25 02:25:00,29.6,12.8,29.90,WNW,302,7.0,7.0,49,0.00,,,0.00,Wunderground v.1.15,2013-02-25 09:25:00,
2013-02-25 02:30:00,28.3,14.2,29.90,NNW,346,5.0,5.0,55,0.00,,,0.00,Wunderground v.1.15,2013-02-25 09:30:00,
2013-02-25 02:35:00,27.0,13.4,29.90,NNW,333,4.0,5.0,56,0.00,,,0.00,Wunderground v.1.15,2013-02-25 09:35:00,
2013-02-25 02:40:00,26.5,13.7,29.90,NW,325,3.0,3.0,58,0.00,,,0.00,Wunderground v.1.15,2013-02-25 09:40:00,
2013-02-25 02:45:00,26.2,14.2,29.90,NW,325,2.0,3.0,60,0.00,,,0.00,Wunderground v.1.15,2013-02-25 09:45:00,
2013-02-25 02:55:00,25.9,13.5,29.90,NNW,344,1.0,2.0,59,0.00,,,0.00,Wunderground v.1.15,2013-02-25 09:55:00,
2013-02-25 03:00:00,25.9,12.7,29.90,NNW,341,1.0,1.0,57,0.00,,,0.00,Wunderground v.1.15,2013-02-25 10:00:00,
2013-02-25 03:10:00,26.0,12.0,29.90,NNW,340,0.0,0.0,55,0.00,,,0.00,Wunderground v.1.15,2013-02-25 10:10:00,
2013-02-25 03:15:00,25.8,11.8,29.90,NNW,340,0.0,0.0,55,0.00,,,0.00,Wunderground v.1.15,2013-02-25 10:15:00,
2013-02-25 03:25:00,24.8,11.3,29.90,NNW,338,0.0,0.0,56,0.00,,,0.00,Wunderground v.1.15,2013-02-25 10:25:00,
2013-02-25 03:30:00,24.3,10.8,29.90,NNW,338,0.0,0.0,56,0.00,,,0.00,Wunderground v.1.15,2013-02-25 10:30:00,
2013-02-25 03:35:00,23.8,10.8,29.90,NNW,333,0.0,1.0,57,0.00,,,0.00,Wunderground v.1.15,2013-02-25 10:35:00,
2013-02-25 03:40:00,23.4,10.8,29.90,SW,232,1.0,2.0,58,0.00,,,0.00,Wunderground v.1.15,2013-02-25 10:40:00,
2013-02-25 03:50:00,22.1,10.3,29.90,SSW,199,4.0,5.0,60,0.00,,,0.00,Wunderground v.1.15,2013-02-25 10:50:00,
2013-02-25 03:55:00,21.7,10.7,29.90,SSW,196,5.0,5.0,62,0.00,,,0.00,Wunderground v.1.15,2013-02-25 10:55:00,
2013-02-25 04:00:00,21.7,10.7,29.90,SSW,196,3.0,3.0,62,0.00,,,0.00,Wunderground v.1.15,2013-02-25 11:00:00,
2013-02-25 04:10:00,21.9,10.9,29.90,SSW,194,1.0,1.0,62,0.00,,,0.00,Wunderground v.1.15,2013-02-25 11:10:00,
2013-02-25 04:15:00,21.6,10.9,29.90,SSW,194,0.0,1.0,63,0.00,,,0.00,Wunderground v.1.15,2013-02-25 11:15:00,
2013-02-25 04:25:00,19.9,10.4,29.90,SSW,194,0.0,0.0,66,0.00,,,0.00,Wunderground v.1.15,2013-02-25 11:25:00,
2013-02-25 04:30:00,19.9,10.7,29.90,SSW,194,0.0,0.0,67,0.00,,,0.00,Wunderground v.1.15,2013-02-25 11:30:00,
2013-02-25 04:35:00,20.7,11.1,29.90,SSW,196,0.0,0.0,66,0.00,,,0.00,Wunderground v.1.15,2013-02-25 11:35:00,
2013-02-25 04:45:00,22.4,11.3,29.90,WSW,246,0.0,1.0,62,0.00,,,0.00,Wunderground v.1.15,2013-02-25 11:45:00,
2013-02-25 04:55:00,24.3,11.6,29.90,West,271,0.0,0.0,58,0.00,,,0.00,Wunderground v.1.15,2013-02-25 11:55:00,
2013-02-25 05:00:00,24.9,11.4,29.90,West,273,0.0,0.0,56,0.00,,,0.00,Wunderground v.1.15,2013-02-25 12:00:00,
2013-02-25 05:10:00,25.5,11.6,29.90,West,273,0.0,1.0,55,0.00,,,0.00,Wunderground v.1.15,2013-02-25 12:10:00,
2013-02-25 05:15:00,25.4,11.5,29.90,West,274,0.0,1.0,55,0.00,,,0.00,Wunderground v.1.15,2013-02-25 12:15:00,
2013-02-25 05:20:00,25.6,11.7,29.90,West,274,1.0,1.0,55,0.00,,,0.00,Wunderground v.1.15,2013-02-25 12:20:00,
2013-02-25 05:25:00,25.7,11.7,29.90,WNW,290,1.0,1.0,55,0.00,,,0.00,Wunderground v.1.15,2013-02-25 12:25:00,
2013-02-25 05:35:00,25.7,11.7,29.90,WNW,298,1.0,1.0,55,0.00,,,0.00,Wunderground v.1.15,2013-02-25 12:35:00,
2013-02-25 05:40:00,25.7,12.2,29.90,WNW,298,0.0,0.0,56,0.00,,,0.00,Wunderground v.1.15,2013-02-25 12:40:00,
2013-02-25 05:45:00,25.8,12.2,29.90,WNW,301,0.0,0.0,56,0.00,,,0.00,Wunderground v.1.15,2013-02-25 12:45:00,
2013-02-25 05:55:00,25.6,11.7,29.90,WNW,301,0.0,0.0,55,0.00,,,0.00,Wunderground v.1.15,2013-02-25 12:55:00,
2013-02-25 06:00:00,25.6,12.1,29.90,WNW,301,0.0,0.0,56,0.00,,,0.00,Wunderground v.1.15,2013-02-25 13:00:00,
2013-02-25 06:10:00,24.8,11.3,29.90,WNW,301,0.0,0.0,56,0.00,,,0.00,Wunderground v.1.15,2013-02-25 13:10:00,
2013-02-25 06:20:00,23.3,11.1,29.90,WNW,301,0.0,0.0,59,0.00,,,0.00,Wunderground v.1.15,2013-02-25 13:20:00,
2013-02-25 06:25:00,23.1,11.3,29.90,WNW,301,0.0,0.0,60,0.00,,,0.00,Wunderground v.1.15,2013-02-25 13:25:00,
2013-02-25 06:30:00,22.6,10.8,29.90,WNW,301,0.0,0.0,60,0.00,,,0.00,Wunderground v.1.15,2013-02-25 13:30:00,
2013-02-25 06:40:00,21.1,10.5,29.90,WNW,301,0.0,0.0,63,0.00,,,0.00,Wunderground v.1.15,2013-02-25 13:40:00,
2013-02-25 06:45:00,20.5,10.2,29.90,WNW,301,0.0,0.0,64,0.00,,,0.00,Wunderground v.1.15,2013-02-25 13:45:00,
2013-02-25 06:50:00,20.4,10.5,29.90,WNW,301,0.0,0.0,65,0.00,,,0.00,Wunderground v.1.15,2013-02-25 13:50:00,
2013-02-25 06:55:00,21.4,11.5,29.90,WNW,301,0.0,0.0,65,0.00,,,0.00,Wunderground v.1.15,2013-02-25 13:55:00,
2013-02-25 07:00:00,22.0,11.7,29.90,SW,217,1.0,1.0,64,0.00,,,0.00,Wunderground v.1.15,2013-02-25 14:00:00,
2013-02-25 07:20:00,22.3,12.7,29.90,SSE,168,0.0,0.0,66,0.00,,,0.00,Wunderground v.1.15,2013-02-25 14:20:00,
2013-02-25 07:30:00,23.0,14.3,29.90,SSE,168,0.0,0.0,69,0.00,,,0.00,Wunderground v.1.15,2013-02-25 14:30:00,
2013-02-25 07:35:00,23.7,15.0,29.90,South,169,0.0,0.0,69,0.00,,,0.00,Wunderground v.1.15,2013-02-25 14:35:00,
2013-02-25 07:40:00,24.7,16.6,29.90,SSE,168,0.0,0.0,71,0.00,,,0.00,Wunderground v.1.15,2013-02-25 14:40:00,
2013-02-25 07:45:00,25.8,16.7,29.90,SSE,168,0.0,0.0,68,0.00,,,0.00,Wunderground v.1.15,2013-02-25 14:45:00,
2013-02-25 07:50:00,27.3,16.0,29.90,South,169,0.0,0.0,62,0.00,,,0.00,Wunderground v.1.15,2013-02-25 14:50:00,
2013-02-25 07:55:00,28.7,15.8,29.90,South,169,0.0,0.0,58,0.00,,,0.00,Wunderground v.1.15,2013-02-25 14:55:00,
2013-02-25 08:00:00,30.0,15.3,29.90,South,169,0.0,0.0,54,0.00,,,0.00,Wunderground v.1.15,2013-02-25 15:00:00,
2013-02-25 08:10:00,32.1,16.0,29.90,South,169,0.0,0.0,51,0.00,,,0.00,Wunderground v.1.15,2013-02-25 15:10:00,
2013-02-25 08:15:00,32.4,14.9,29.90,WNW,290,0.0,0.0,48,0.00,,,0.00,Wunderground v.1.15,2013-02-25 15:15:00,
2013-02-25 08:20:00,32.7,15.1,29.90,WNW,299,0.0,0.0,48,0.00,,,0.00,Wunderground v.1.15,2013-02-25 15:20:00,
2013-02-25 08:30:00,33.5,15.4,29.90,WNW,299,0.0,0.0,47,0.00,,,0.00,Wunderground v.1.15,2013-02-25 15:30:00,
2013-02-25 08:35:00,34.1,15.9,29.90,WNW,299,0.0,0.0,47,0.00,,,0.00,Wunderground v.1.15,2013-02-25 15:35:00,
2013-02-25 08:40:00,34.5,16.3,29.90,NW,319,0.0,0.0,47,0.00,,,0.00,Wunderground v.1.15,2013-02-25 15:40:00,
2013-02-25 08:45:00,34.6,16.9,29.90,NW,324,0.0,0.0,48,0.00,,,0.00,Wunderground v.1.15,2013-02-25 15:45:00,
2013-02-25 08:50:00,34.8,16.6,29.90,NW,326,0.0,0.0,47,0.00,,,0.00,Wunderground v.1.15,2013-02-25 15:50:00,
2013-02-25 08:55:00,35.1,16.9,29.90,NNW,342,0.0,0.0,47,0.00,,,0.00,Wunderground v.1.15,2013-02-25 15:55:00,
2013-02-25 09:00:00,35.7,16.9,29.90,NNW,343,0.0,0.0,46,0.00,,,0.00,Wunderground v.1.15,2013-02-25 16:00:00,
2013-02-25 09:10:00,37.1,17.7,29.90,North,355,2.0,3.0,45,0.00,,,0.00,Wunderground v.1.15,2013-02-25 16:10:00,
2013-02-25 09:15:00,37.8,16.7,29.90,North,355,4.0,4.0,42,0.00,,,0.00,Wunderground v.1.15,2013-02-25 16:15:00,
2013-02-25 09:25:00,38.3,16.6,29.90,NW,314,4.0,5.0,41,0.00,,,0.00,Wunderground v.1.15,2013-02-25 16:25:00,
2013-02-25 09:30:00,39.0,16.7,29.90,NNW,340,4.0,4.0,40,0.00,,,0.00,Wunderground v.1.15,2013-02-25 16:30:00,
2013-02-25 09:40:00,39.6,14.8,29.90,WNW,287,4.0,9.0,36,0.00,,,0.00,Wunderground v.1.15,2013-02-25 16:40:00,
2013-02-25 09:45:00,40.0,13.8,29.90,NW,304,5.0,9.0,34,0.00,,,0.00,Wunderground v.1.15,2013-02-25 16:45:00,
2013-02-25 09:50:00,40.3,14.8,29.90,WNW,294,3.0,3.0,35,0.00,,,0.00,Wunderground v.1.15,2013-02-25 16:50:00,
2013-02-25 09:55:00,40.7,15.8,29.90,WNW,300,3.0,9.0,36,0.00,,,0.00,Wunderground v.1.15,2013-02-25 16:55:00,
2013-02-25 10:00:00,40.9,14.0,29.90,NNW,329,5.0,5.0,33,0.00,,,0.00,Wunderground v.1.15,2013-02-25 17:00:00,
2013-02-25 10:10:00,41.6,15.3,29.90,WNW,302,6.0,6.0,34,0.00,,,0.00,Wunderground v.1.15,2013-02-25 17:10:00,
2013-02-25 10:20:00,41.8,15.4,29.90,NW,324,5.0,9.0,34,0.00,,,0.00,Wunderground v.1.15,2013-02-25 17:20:00,
2013-02-25 10:25:00,42.0,13.5,29.90,NW,321,6.0,9.0,31,0.00,,,0.00,Wunderground v.1.15,2013-02-25 17:25:00,
2013-02-25 10:30:00,42.2,14.4,29.90,NW,307,5.0,5.0,32,0.00,,,0.00,Wunderground v.1.15,2013-02-25 17:30:00,
2013-02-25 10:35:00,42.2,12.9,29.90,WNW,292,3.0,5.0,30,0.00,,,0.00,Wunderground v.1.15,2013-02-25 17:35:00,
2013-02-25 10:40:00,42.3,13.8,29.90,WNW,284,3.0,3.0,31,0.00,,,0.00,Wunderground v.1.15,2013-02-25 17:40:00,
2013-02-25 10:50:00,42.7,13.4,29.90,WNW,296,3.0,4.0,30,0.00,,,0.00,Wunderground v.1.15,2013-02-25 17:50:00,
2013-02-25 10:55:00,42.9,13.5,29.90,West,275,5.0,5.0,30,0.00,,,0.00,Wunderground v.1.15,2013-02-25 17:55:00,
2013-02-25 11:00:00,42.9,15.0,29.90,NW,306,4.0,5.0,32,0.00,,,0.00,Wunderground v.1.15,2013-02-25 18:00:00,
2013-02-25 11:10:00,43.4,14.0,29.90,WNW,282,3.0,4.0,30,0.00,,,0.00,Wunderground v.1.15,2013-02-25 18:10:00,
2013-02-25 11:15:00,43.6,14.9,29.90,WNW,288,3.0,4.0,31,0.00,,,0.00,Wunderground v.1.15,2013-02-25 18:15:00,
2013-02-25 11:20:00,44.0,12.9,29.90,NNW,336,4.0,7.0,28,0.00,,,0.00,Wunderground v.1.15,2013-02-25 18:20:00,
2013-02-25 11:30:00,44.7,13.5,29.90,WNW,284,2.0,4.0,28,0.00,,,0.00,Wunderground v.1.15,2013-02-25 18:30:00,
2013-02-25 11:35:00,45.0,13.0,29.90,WNW,288,4.0,4.0,27,0.00,,,0.00,Wunderground v.1.15,2013-02-25 18:35:00,
2013-02-25 11:40:00,45.0,13.0,29.90,WNW,302,3.0,3.0,27,0.00,,,0.00,Wunderground v.1.15,2013-02-25 18:40:00,
2013-02-25 11:45:00,45.5,14.2,29.90,NNW,337,1.0,4.0,28,0.00,,,0.00,Wunderground v.1.15,2013-02-25 18:45:00,
2013-02-25 11:50:00,45.8,12.8,29.90,WNW,291,2.0,2.0,26,0.00,,,0.00,Wunderground v.1.15,2013-02-25 18:50:00,
2013-02-25 12:00:00,45.8,12.8,29.90,West,276,3.0,5.0,26,0.00,,,0.00,Wunderground v.1.15,2013-02-25 19:00:00,
2013-02-25 12:10:00,46.4,13.3,29.90,NW,309,2.0,2.0,26,0.00,,,0.00,Wunderground v.1.15,2013-02-25 19:10:00,
2013-02-25 12:20:00,46.3,14.1,29.90,NNW,339,2.0,4.0,27,0.00,,,0.00,Wunderground v.1.15,2013-02-25 19:20:00,
2013-02-25 12:25:00,46.8,13.7,29.90,NNW,336,4.0,5.0,26,0.00,,,0.00,Wunderground v.1.15,2013-02-25 19:25:00,
2013-02-25 12:35:00,47.5,13.4,29.90,WNW,296,2.0,3.0,25,0.00,,,0.00,Wunderground v.1.15,2013-02-25 19:35:00,
2013-02-25 12:40:00,47.4,13.3,29.90,NE,48,3.0,3.0,25,0.00,,,0.00,Wunderground v.1.15,2013-02-25 19:40:00,
2013-02-25 12:50:00,48.0,13.8,29.90,NW,311,3.0,5.0,25,0.00,,,0.00,Wunderground v.1.15,2013-02-25 19:50:00,
2013-02-25 12:55:00,47.9,14.6,29.90,NNW,330,3.0,5.0,26,0.00,,,0.00,Wunderground v.1.15,2013-02-25 19:55:00,
2013-02-25 13:00:00,48.3,15.8,29.90,NNW,333,2.0,3.0,27,0.00,,,0.00,Wunderground v.1.15,2013-02-25 20:00:00,
2013-02-25 13:10:00,49.1,13.8,29.90,NW,311,2.0,2.0,24,0.00,,,0.00,Wunderground v.1.15,2013-02-25 20:10:00,
2013-02-25 13:15:00,49.0,13.7,29.90,NW,320,3.0,3.0,24,0.00,,,0.00,Wunderground v.1.15,2013-02-25 20:15:00,
2013-02-25 13:20:00,49.0,12.7,29.90,WNW,292,3.0,3.0,23,0.00,,,0.00,Wunderground v.1.15,2013-02-25 20:20:00,
2013-02-25 13:25:00,49.1,12.8,29.90,NNW,327,1.0,3.0,23,0.00,,,0.00,Wunderground v.1.15,2013-02-25 20:25:00,
2013-02-25 13:30:00,49.4,13.1,29.90,West,264,0.0,0.0,23,0.00,,,0.00,Wunderground v.1.15,2013-02-25 20:30:00,
2013-02-25 13:35:00,49.8,13.4,29.90,ENE,63,0.0,0.0,23,0.00,,,0.00,Wunderground v.1.15,2013-02-25 20:35:00,
2013-02-25 13:40:00,50.1,13.7,29.90,NW,310,0.0,4.0,23,0.00,,,0.00,Wunderground v.1.15,2013-02-25 20:40:00,
2013-02-25 13:50:00,50.3,12.8,29.90,North,350,3.0,3.0,22,0.00,,,0.00,Wunderground v.1.15,2013-02-25 20:50:00,
2013-02-25 13:55:00,50.5,10.9,29.90,East,80,3.0,3.0,20,0.00,,,0.00,Wunderground v.1.15,2013-02-25 20:55:00,
2013-02-25 14:00:00,50.7,11.0,29.90,North,9,2.0,2.0,20,0.00,,,0.00,Wunderground v.1.15,2013-02-25 21:00:00,
2013-02-25 14:10:00,51.2,11.4,29.90,NNE,15,3.0,3.0,20,0.00,,,0.00,Wunderground v.1.15,2013-02-25 21:10:00,
2013-02-25 14:15:00,51.5,12.8,29.90,NNW,342,3.0,5.0,21,0.00,,,0.00,Wunderground v.1.15,2013-02-25 21:15:00,
2013-02-25 14:20:00,51.6,11.8,29.90,NNW,342,4.0,4.0,20,0.00,,,0.00,Wunderground v.1.15,2013-02-25 21:20:00,
2013-02-25 14:30:00,51.9,13.1,29.90,NW,322,4.0,4.0,21,0.00,,,0.00,Wunderground v.1.15,2013-02-25 21:30:00,
2013-02-25 14:35:00,52.2,11.1,29.90,North,360,2.0,4.0,19,0.00,,,0.00,Wunderground v.1.15,2013-02-25 21:35:00,
2013-02-25 14:40:00,52.5,11.4,29.90,NNW,348,2.0,3.0,19,0.00,,,0.00,Wunderground v.1.15,2013-02-25 21:40:00,
2013-02-25 14:45:00,53.1,10.6,29.90,West,280,3.0,3.0,18,0.00,,,0.00,Wunderground v.1.15,2013-02-25 21:45:00,
2013-02-25 14:50:00,52.8,10.4,29.90,WNW,294,6.0,9.0,18,0.00,,,0.00,Wunderground v.1.15,2013-02-25 21:50:00,
2013-02-25 14:55:00,53.2,10.7,29.90,WSW,252,7.0,9.0,18,0.00,,,0.00,Wunderground v.1.15,2013-02-25 21:55:00,
2013-02-25 15:01:00,53.8,11.2,29.90,SW,228,5.0,5.0,18,0.00,,,0.00,Wunderground v.1.15,2013-02-25 22:01:00,
2013-02-25 15:10:00,53.8,9.9,29.90,SW,234,5.0,5.0,17,0.00,,,0.00,Wunderground v.1.15,2013-02-25 22:10:00,
2013-02-25 15:20:00,54.4,10.4,29.90,WNW,296,2.0,7.0,17,0.00,,,0.00,Wunderground v.1.15,2013-02-25 22:20:00,
2013-02-25 15:30:00,53.7,9.8,29.90,WNW,302,7.0,7.0,17,0.00,,,0.00,Wunderground v.1.15,2013-02-25 22:30:00,
2013-02-25 15:35:00,53.7,8.5,29.90,WNW,292,6.0,7.0,16,0.00,,,0.00,Wunderground v.1.15,2013-02-25 22:35:00,
2013-02-25 15:40:00,53.8,8.6,29.90,NW,305,6.0,6.0,16,0.00,,,0.00,Wunderground v.1.15,2013-02-25 22:40:00,
2013-02-25 15:45:00,54.1,7.4,29.90,SW,223,7.0,7.0,15,0.00,,,0.00,Wunderground v.1.15,2013-02-25 22:45:00,
2013-02-25 15:50:00,54.6,7.8,29.90,WNW,298,6.0,6.0,15,0.00,,,0.00,Wunderground v.1.15,2013-02-25 22:50:00,
2013-02-25 15:55:00,54.7,9.3,29.90,SW,221,4.0,6.0,16,0.00,,,0.00,Wunderground v.1.15,2013-02-25 22:55:00,
2013-02-25 16:00:00,54.7,6.3,29.90,West,264,2.0,5.0,14,0.00,,,0.00,Wunderground v.1.15,2013-02-25 23:00:00,
2013-02-25 16:10:00,53.7,7.1,29.90,West,259,8.0,8.0,15,0.00,,,0.00,Wunderground v.1.15,2013-02-25 23:10:00,
2013-02-25 16:15:00,53.8,8.6,29.90,WSW,241,8.0,8.0,16,0.00,,,0.00,Wunderground v.1.15,2013-02-25 23:15:00,
2013-02-25 16:25:00,53.2,8.1,29.90,West,264,10.0,10.0,16,0.00,,,0.00,Wunderground v.1.15,2013-02-25 23:25:00,
2013-02-25 16:30:00,53.1,9.4,29.90,West,271,10.0,13.0,17,0.00,,,0.00,Wunderground v.1.15,2013-02-25 23:30:00,
2013-02-25 16:40:00,52.8,10.4,29.90,SW,234,12.0,14.0,18,0.00,,,0.00,Wunderground v.1.15,2013-02-25 23:40:00,
2013-02-25 16:45:00,52.7,10.3,29.90,WSW,254,10.0,14.0,18,0.00,,,0.00,Wunderground v.1.15,2013-02-25 23:45:00,
2013-02-25 16:50:00,52.7,11.5,29.90,SW,232,10.0,12.0,19,0.00,,,0.00,Wunderground v.1.15,2013-02-25 23:50:00,
2013-02-25 16:55:00,52.4,10.1,29.90,WSW,249,11.0,12.0,18,0.00,,,0.00,Wunderground v.1.15,2013-02-25 23:55:00,
2013-02-25 17:00:00,52.4,11.3,29.90,West,265,11.0,11.0,19,0.00,,,0.00,Wunderground v.1.15,2013-02-26 00:00:00,
2013-02-25 17:10:00,52.0,10.9,29.90,WSW,238,11.0,11.0,19,0.00,,,0.00,Wunderground v.1.15,2013-02-26 00:10:00,
2013-02-25 17:20:00,51.6,10.6,29.90,WSW,253,10.0,10.0,19,0.00,,,0.00,Wunderground v.1.15,2013-02-26 00:20:00,
2013-02-25 17:25:00,51.6,9.4,29.90,WSW,246,9.0,10.0,18,0.00,,,0.00,Wunderground v.1.15,2013-02-26 00:25:00,
2013-02-25 17:30:00,51.7,10.7,29.90,WSW,241,7.0,7.0,19,0.00,,,0.00,Wunderground v.1.15,2013-02-26 00:30:00,
2013-02-25 17:35:00,51.4,11.6,29.90,SW,220,6.0,7.0,20,0.00,,,0.00,Wunderground v.1.15,2013-02-26 00:35:00,
2013-02-25 17:45:00,50.7,11.0,29.90,WSW,258,6.0,7.0,20,0.00,,,0.00,Wunderground v.1.15,2013-02-26 00:45:00,
2013-02-25 17:50:00,50.1,11.6,29.90,WSW,246,6.0,6.0,21,0.00,,,0.00,Wunderground v.1.15,2013-02-26 00:50:00,
2013-02-25 17:55:00,48.8,11.6,29.90,WSW,242,6.0,6.0,22,0.00,,,0.00,Wunderground v.1.15,2013-02-26 00:55:00,
2013-02-25 18:00:00,47.4,12.4,29.90,WSW,241,5.0,5.0,24,0.00,,,0.00,Wunderground v.1.15,2013-02-26 01:00:00,
2013-02-25 18:10:00,44.5,12.5,29.90,WSW,242,3.0,3.0,27,0.00,,,0.00,Wunderground v.1.15,2013-02-26 01:10:00,
2013-02-25 18:15:00,43.5,12.5,29.90,SW,234,3.0,3.0,28,0.00,,,0.00,Wunderground v.1.15,2013-02-26 01:15:00,
2013-02-25 18:25:00,41.6,12.4,29.90,WSW,243,4.0,4.0,30,0.00,,,0.00,Wunderground v.1.15,2013-02-26 01:25:00,
2013-02-25 18:30:00,41.5,12.3,29.90,WSW,257,5.0,6.0,30,0.00,,,0.00,Wunderground v.1.15,2013-02-26 01:30:00,
2013-02-25 18:35:00,42.2,12.9,29.90,WSW,258,6.0,7.0,30,0.00,,,0.00,Wunderground v.1.15,2013-02-26 01:35:00,
2013-02-25 18:40:00,43.3,12.3,29.90,WSW,244,6.0,6.0,28,0.00,,,0.00,Wunderground v.1.15,2013-02-26 01:40:00,
2013-02-25 18:45:00,43.5,12.5,29.90,West,259,6.0,7.0,28,0.00,,,0.00,Wunderground v.1.15,2013-02-26 01:45:00,
2013-02-25 18:55:00,43.1,12.9,29.90,WSW,245,6.0,6.0,29,0.00,,,0.00,Wunderground v.1.15,2013-02-26 01:55:00,
2013-02-25 19:00:00,43.1,12.9,29.90,West,262,6.0,6.0,29,0.00,,,0.00,Wunderground v.1.15,2013-02-26 02:00:00,
2013-02-25 19:10:00,43.2,13.0,29.90,WSW,242,6.0,6.0,29,0.00,,,0.00,Wunderground v.1.15,2013-02-26 02:10:00,
2013-02-25 19:20:00,41.0,13.4,29.90,WSW,242,3.0,6.0,32,0.00,,,0.00,Wunderground v.1.15,2013-02-26 02:20:00,
2013-02-25 19:30:00,42.3,13.0,29.90,SW,226,6.0,6.0,30,0.00,,,0.00,Wunderground v.1.15,2013-02-26 02:30:00,
2013-02-25 19:35:00,41.1,12.7,29.90,SW,221,4.0,6.0,31,0.00,,,0.00,Wunderground v.1.15,2013-02-26 02:35:00,
2013-02-25 19:40:00,40.4,12.8,29.90,WSW,248,5.0,5.0,32,0.00,,,0.00,Wunderground v.1.15,2013-02-26 02:40:00,
2013-02-25 19:45:00,40.6,13.0,29.90,WSW,248,6.0,7.0,32,0.00,,,0.00,Wunderground v.1.15,2013-02-26 02:45:00,
2013-02-25 19:50:00,40.9,13.3,29.90,WSW,254,6.0,6.0,32,0.00,,,0.00,Wunderground v.1.15,2013-02-26 02:50:00,
2013-02-25 20:00:00,40.6,13.0,29.90,WSW,258,6.0,7.0,32,0.00,,,0.00,Wunderground v.1.15,2013-02-26 03:00:00,
2013-02-25 20:10:00,40.5,12.9,29.90,West,273,7.0,7.0,32,0.00,,,0.00,Wunderground v.1.15,2013-02-26 03:10:00,
2013-02-25 20:15:00,40.5,12.9,29.90,West,279,7.0,7.0,32,0.00,,,0.00,Wunderground v.1.15,2013-02-26 03:15:00,
2013-02-25 20:20:00,39.9,13.1,29.90,West,264,6.0,7.0,33,0.00,,,0.00,Wunderground v.1.15,2013-02-26 03:20:00,
2013-02-25 20:30:00,39.5,12.7,29.90,West,264,7.0,7.0,33,0.00,,,0.00,Wunderground v.1.15,2013-02-26 03:30:00,
2013-02-25 20:35:00,40.2,13.3,29.90,West,269,7.0,7.0,33,0.00,,,0.00,Wunderground v.1.15,2013-02-26 03:35:00,
2013-02-25 20:45:00,40.3,13.4,29.90,WSW,257,6.0,7.0,33,0.00,,,0.00,Wunderground v.1.15,2013-02-26 03:45:00,
2013-02-25 20:50:00,39.9,13.1,29.90,WSW,252,5.0,5.0,33,0.00,,,0.00,Wunderground v.1.15,2013-02-26 03:50:00,
2013-02-25 20:55:00,39.0,13.0,29.90,WSW,248,5.0,7.0,34,0.00,,,0.00,Wunderground v.1.15,2013-02-26 03:55:00,
2013-02-25 21:00:00,38.7,13.4,29.90,WSW,242,6.0,6.0,35,0.00,,,0.00,Wunderground v.1.15,2013-02-26 04:00:00,
2013-02-25 21:10:00,37.9,13.3,29.90,WSW,250,5.0,5.0,36,0.00,,,0.00,Wunderground v.1.15,2013-02-26 04:10:00,
2013-02-25 21:15:00,37.8,13.2,29.90,WSW,253,5.0,5.0,36,0.00,,,0.00,Wunderground v.1.15,2013-02-26 04:15:00,
2013-02-25 21:20:00,37.2,12.7,29.90,SSW,200,3.0,3.0,36,0.00,,,0.00,Wunderground v.1.15,2013-02-26 04:20:00,
2013-02-25 21:25:00,35.7,12.5,29.90,SSW,200,1.0,3.0,38,0.00,,,0.00,Wunderground v.1.15,2013-02-26 04:25:00,
2013-02-25 21:30:00,34.9,13.0,29.90,SSW,200,2.0,3.0,40,0.00,,,0.00,Wunderground v.1.15,2013-02-26 04:30:00,
2013-02-25 21:35:00,34.9,13.0,29.90,SW,215,3.0,4.0,40,0.00,,,0.00,Wunderground v.1.15,2013-02-26 04:35:00,
2013-02-25 21:45:00,34.9,13.0,29.90,WSW,238,3.0,3.0,40,0.00,,,0.00,Wunderground v.1.15,2013-02-26 04:45:00,
2013-02-25 21:50:00,34.9,13.5,29.90,WSW,250,3.0,3.0,41,0.00,,,0.00,Wunderground v.1.15,2013-02-26 04:50:00,
2013-02-25 21:55:00,34.5,14.8,29.90,North,5,3.0,3.0,44,0.00,,,0.00,Wunderground v.1.15,2013-02-26 04:55:00,
2013-02-25 22:00:00,33.9,15.8,29.90,WNW,298,1.0,1.0,47,0.00,,,0.00,Wunderground v.1.15,2013-02-26 05:00:00,
2013-02-25 22:10:00,33.7,14.1,29.90,WSW,242,0.0,0.0,44,0.00,,,0.00,Wunderground v.1.15,2013-02-26 05:10:00,
2013-02-25 22:15:00,32.6,13.1,29.90,SW,226,0.0,0.0,44,0.00,,,0.00,Wunderground v.1.15,2013-02-26 05:15:00,
2013-02-25 22:20:00,32.3,13.3,29.90,SW,227,0.0,1.0,45,0.00,,,0.00,Wunderground v.1.15,2013-02-26 05:20:00,
2013-02-25 22:25:00,32.0,12.5,29.90,SW,227,0.0,1.0,44,0.00,,,0.00,Wunderground v.1.15,2013-02-26 05:25:00,
2013-02-25 22:30:00,30.9,12.0,29.90,SW,227,0.0,0.0,45,0.00,,,0.00,Wunderground v.1.15,2013-02-26 05:30:00,
2013-02-25 22:35:00,30.4,12.1,29.90,SW,227,0.0,0.0,46,0.00,,,0.00,Wunderground v.1.15,2013-02-26 05:35:00,
2013-02-25 22:40:00,29.6,11.8,29.90,SW,227,0.0,0.0,47,0.00,,,0.00,Wunderground v.1.15,2013-02-26 05:40:00,
2013-02-25 22:45:00,29.2,12.4,29.90,SW,227,0.0,0.0,49,0.00,,,0.00,Wunderground v.1.15,2013-02-26 05:45:00,
2013-02-25 22:50:00,29.0,12.2,29.90,SW,227,0.0,0.0,49,0.00,,,0.00,Wunderground v.1.15,2013-02-26 05:50:00,
2013-02-25 22:55:00,28.0,11.7,29.90,SW,227,0.0,0.0,50,0.00,,,0.00,Wunderground v.1.15,2013-02-26 05:55:00,
2013-02-25 23:00:00,28.0,12.6,29.90,SW,226,0.0,0.0,52,0.00,,,0.00,Wunderground v.1.15,2013-02-26 06:00:00,
2013-02-25 23:10:00,27.0,12.1,29.90,SSW,212,1.0,1.0,53,0.00,,,0.00,Wunderground v.1.15,2013-02-26 06:10:00,
2013-02-25 23:15:00,26.6,12.2,29.90,SSW,211,1.0,1.0,54,0.00,,,0.00,Wunderground v.1.15,2013-02-26 06:15:00,
2013-02-25 23:20:00,26.3,12.7,29.90,SSW,211,0.0,0.0,56,0.00,,,0.00,Wunderground v.1.15,2013-02-26 06:20:00,
2013-02-25 23:25:00,26.1,12.9,29.90,SSE,158,1.0,2.0,57,0.00,,,0.00,Wunderground v.1.15,2013-02-26 06:25:00,
2013-02-25 23:30:00,26.5,13.3,29.90,SSE,158,1.0,1.0,57,0.00,,,0.00,Wunderground v.1.15,2013-02-26 06:30:00,
2013-02-25 23:35:00,26.3,13.1,29.90,SSE,158,0.0,1.0,57,0.00,,,0.00,Wunderground v.1.15,2013-02-26 06:35:00,
2013-02-25 23:40:00,26.6,13.8,29.90,SSE,158,0.0,0.0,58,0.00,,,0.00,Wunderground v.1.15,2013-02-26 06:40:00,
2013-02-25 23:45:00,27.1,14.3,29.90,SSE,158,0.0,0.0,58,0.00,,,0.00,Wunderground v.1.15,2013-02-26 06:45:00,
2013-02-25 23:55:00,27.4,14.1,29.90,SSE,158,1.0,2.0,57,0.00,,,0.00,Wunderground v.1.15,2013-02-26 06:55:00,